Total_Precipitation_Accumulation
1.29 1.39 1.44 1.45 1.40 1.54 1.58 1.56 1.60 1.64 1.61 1.69 1.79 1.92 1.94 1.99 2.09 2.18 2.00 2.08 2.19 2.35 2.25 2.23 2.28 2.40 2.37 2.28 2.37 2.43 2.57 2.83 2.77 2.28 2.19 2.20 2.04 1.83 1.76 1.67 1.62 1.71 1.73
1.29 1.43 1.52 1.68 1.63 1.57 1.55 1.60 1.67 1.81 1.89 1.85 1.92 1.97 1.84 1.88 2.08 2.14 2.11 2.12 2.15 2.18 2.37 2.60 2.53 2.58 2.53 2.38 2.47 2.43 2.49 2.78 2.69 2.44 2.45 2.47 2.40 2.18 2.03 1.83 1.64 1.63 1.73
1.42 1.51 1.66 1.76 1.65 1.57 1.67 1.76 1.82 1.97 2.13 2.21 2.20 2.03 1.94 1.93 1.99 2.07 2.17 2.17 2.18 2.25 2.41 2.49 2.52 2.70 2.57 2.47 2.42 2.40 2.48 2.64 2.74 2.53 2.47 2.64 2.54 2.29 2.13 1.87 1.66 1.74 1.57
1.56 1.75 1.84 1.87 1.79 1.73 1.81 1.92 1.94 2.00 2.15 2.29 2.25 2.18 2.13 2.01 1.90 1.87 1.91 1.98 2.14 2.30 2.35 2.28 2.37 2.60 2.65 2.64 2.47 2.45 2.58 2.68 2.70 2.61 2.51 2.62 2.65 2.58 2.40 2.18 2.06 1.89 1.72
1.71 1.89 1.96 2.05 2.06 2.06 2.15 2.16 2.08 2.10 2.11 2.25 2.30 2.33 2.29 2.11 1.86 1.89 2.02 2.01 2.18 2.20 2.13 2.03 2.03 2.27 2.49 2.57 2.32 2.33 2.47 2.49 2.49 2.51 2.50 2.56 2.61 2.76 2.63 2.36 2.12 1.97 1.74
1.90 2.19 2.23 2.28 2.26 2.35 2.49 2.56 2.45 2.42 2.52 2.55 2.46 2.39 2.29 1.93 2.04 2.08 2.07 2.06 2.17 2.19 2.13 2.03 1.92 1.91 1.92 2.06 2.15 2.28 2.43 2.40 2.39 2.55 2.70 2.75 2.74 2.76 2.77 2.56 2.28 2.04 1.84
2.01 2.26 2.41 2.47 2.51 2.61 2.70 2.71 2.67 2.73 2.90 2.89 2.75 2.56 2.38 2.30 2.23 2.00 1.95 1.82 1.85 1.90 1.97 1.95 1.68 1.53 1.64 1.56 1.75 1.92 2.04 2.12 2.16 2.33 2.48 2.58 2.72 2.87 2.93 2.66 2.45 2.24 1.98
2.25 2.39 2.50 2.53 2.57 2.62 2.69 2.59 2.63 2.77 2.80 2.82 2.73 2.58 2.45 2.36 2.24 1.92 1.86 1.61 1.60 1.62 1.67 1.68 1.65 1.58 1.57 1.64 1.65 1.62 1.59 1.66 1.81 1.83 1.93 2.19 2.46 2.69 2.84 2.73 2.63 2.32 2.00
2.34 2.36 2.34 2.44 2.55 2.60 2.63 2.64 2.66 2.67 2.53 2.42 2.35 2.34 2.30 2.33 2.30 1.99 1.81 1.57 1.63 1.63 1.64 1.66 1.69 1.61 1.76 1.69 1.62 1.63 1.64 1.65 1.70 1.76 1.76 1.92 2.18 2.36 2.48 2.55 2.51 2.36 2.07
2.37 2.40 2.38 2.50 2.60 2.64 2.70 2.72 2.63 2.52 2.45 2.37 2.23 2.22 2.19 2.17 2.23 1.88 1.71 1.55 1.63 1.65 1.70 1.70 1.69 1.59 1.62 1.52 1.45 1.56 1.55 1.58 1.67 1.67 1.65 1.65 1.73 2.05 2.39 2.24 2.27 2.32 2.10
2.22 2.36 2.52 2.69 2.76 2.76 2.75 2.67 2.57 2.46 2.47 2.44 2.32 2.22 2.18 2.12 2.15 1.88 1.70 1.48 1.63 1.84 1.84 1.76 1.74 1.68 1.38 1.33 1.31 1.32 1.35 1.43 1.56 1.51 1.42 1.41 1.51 1.68 1.94 2.03 2.03 2.02 1.98
2.01 2.15 2.24 2.39 2.48 2.50 2.58 2.52 2.53 2.48 2.38 2.29 2.18 2.06 2.00 2.02 1.93 1.83 1.66 1.51 1.57 1.72 1.80 1.80 1.82 1.70 1.39 1.26 1.14 1.12 1.15 1.11 1.15 1.25 1.28 1.29 1.36 1.49 1.64 1.80 1.90 1.96 1.88
1.84 1.99 2.14 2.21 2.36 2.44 2.49 2.45 2.35 2.27 2.14 2.01 1.92 1.85 1.87 1.92 1.90 1.73 1.54 1.45 1.48 1.51 1.63 1.79 1.68 1.53 1.32 1.11 1.07 1.05 1.01 0.94 1.03 1.18 1.23 1.24 1.26 1.36 1.60 1.89 2.06 2.16 2.09
1.81 1.86 1.99 2.07 2.16 2.36 2.41 2.27 2.10 1.95 1.86 1.84 1.81 1.83 1.89 1.93 1.85 1.67 1.46 1.32 1.36 1.42 1.47 1.54 1.53 1.49 1.39 1.23 1.12 1.02 0.96 1.01 1.10 1.15 1.25 1.37 1.50 1.59 1.67 1.77 1.95 2.03 2.06
1.55 1.55 1.59 1.74 1.89 2.04 2.08 2.00 1.82 1.72 1.81 1.84 1.80 1.78 1.71 1.65 1.73 1.69 1.49 1.39 1.40 1.44 1.38 1.39 1.42 1.51 1.55 1.52 1.46 1.36 1.30 1.30 1.26 1.23 1.35 1.48 1.49 1.50 1.51 1.63 1.82 1.88 1.78
1.60 1.51 1.46 1.45 1.52 1.71 1.91 1.98 1.85 1.63 1.67 1.62 1.56 1.50 1.46 1.43 1.45 1.46 1.40 1.35 1.39 1.41 1.29 1.37 1.51 1.59 1.65 1.67 1.67 1.57 1.44 1.32 1.25 1.28 1.34 1.42 1.47 1.49 1.52 1.65 1.78 1.81 1.66
1.61 1.52 1.43 1.38 1.42 1.54 1.76 1.99 2.04 1.81 1.59 1.47 1.31 1.19 1.14 1.12 1.15 1.21 1.27 1.25 1.24 1.18 1.07 1.22 1.40 1.47 1.53 1.54 1.55 1.49 1.44 1.40 1.39 1.42 1.48 1.53 1.58 1.58 1.59 1.62 1.73 1.78 1.67
1.46 1.44 1.31 1.27 1.35 1.47 1.70 1.98 2.14 2.06 1.85 1.56 1.28 1.09 1.03 0.99 1.00 1.08 1.15 1.10 1.05 0.97 0.89 1.02 1.15 1.28 1.40 1.53 1.60 1.59 1.56 1.55 1.50 1.46 1.54 1.58 1.64 1.69 1.66 1.61 1.67 1.75 1.72
1.36 1.37 1.31 1.27 1.30 1.35 1.58 1.89 2.09 2.13 2.01 1.80 1.45 1.15 1.03 0.96 0.95 1.05 1.05 0.97 0.98 0.96 0.93 0.95 1.02 1.17 1.36 1.53 1.66 1.74 1.76 1.70 1.58 1.55 1.57 1.61 1.62 1.71 1.70 1.63 1.67 1.81 1.82
1.21 1.21 1.10 1.08 1.12 1.15 1.25 1.46 1.74 1.92 1.90 1.80 1.55 1.14 0.87 0.82 0.87 1.03 1.08 1.13 1.14 1.05 1.01 1.03 1.09 1.20 1.37 1.55 1.64 1.67 1.71 1.66 1.62 1.59 1.56 1.61 1.66 1.68 1.65 1.61 1.64 1.73 1.71
1.13 1.12 1.03 0.92 0.97 1.04 1.12 1.32 1.59 1.78 1.74 1.65 1.48 1.15 0.93 0.88 0.98 1.05 1.15 1.21 1.21 1.15 1.12 1.08 1.08 1.15 1.31 1.45 1.53 1.57 1.61 1.58 1.53 1.53 1.53 1.57 1.64 1.69 1.72 1.70 1.67 1.71 1.73
0.92 0.95 0.91 0.88 0.95 1.00 1.04 1.23 1.49 1.65 1.59 1.50 1.42 1.25 1.12 1.09 1.16 1.22 1.23 1.21 1.14 1.07 1.06 1.09 1.11 1.16 1.26 1.32 1.39 1.51 1.58 1.57 1.52 1.50 1.51 1.54 1.59 1.61 1.67 1.72 1.68 1.70 1.73
0.80 0.81 0.80 0.80 0.85 0.92 1.04 1.21 1.37 1.43 1.42 1.41 1.28 1.15 1.14 1.18 1.18 1.21 1.22 1.18 1.11 1.05 1.03 1.07 1.13 1.19 1.25 1.26 1.29 1.37 1.44 1.44 1.45 1.45 1.51 1.56 1.58 1.60 1.64 1.68 1.68 1.73 1.74
0.85 0.88 0.89 0.91 0.94 1.04 1.14 1.24 1.29 1.27 1.23 1.21 1.19 1.18 1.20 1.22 1.18 1.17 1.19 1.17 1.15 1.15 1.14 1.12 1.13 1.13 1.15 1.18 1.19 1.20 1.24 1.26 1.26 1.31 1.38 1.48 1.55 1.57 1.58 1.62 1.63 1.66 1.71
0.76 0.85 0.93 1.03 1.08 1.15 1.20 1.25 1.25 1.23 1.16 1.12 1.13 1.17 1.18 1.15 1.19 1.20 1.19 1.17 1.16 1.12 1.06 1.05 1.04 1.00 0.98 0.97 0.95 0.97 1.08 1.07 1.02 1.06 1.15 1.31 1.39 1.43 1.46 1.52 1.58 1.63 1.69
0.76 0.77 0.84 0.92 0.97 1.05 1.17 1.26 1.26 1.19 1.10 1.08 1.12 1.16 1.15 1.12 1.13 1.13 1.13 1.15 1.16 1.12 1.09 1.06 0.99 0.98 0.97 0.95 0.94 0.99 0.98 0.89 0.87 0.91 0.94 1.05 1.21 1.30 1.37 1.45 1.50 1.62 1.68